Weather History for Scilly, United Kingdom

Change the Weather History Date:

Friday, October 11, 2013

  Actual Average Record
Temperature  
Mean Temperature 54 °F -  
Max Temperature 58 °F 54 °F 62 °F (1997)
Min Temperature 51 °F 52 °F 50 °F (2000)
Degree Days  
Heating Degree Days 10    
Growing Degree Days 4 (Base 50)    
Moisture  
Dew Point 46 °F    
Average Humidity 67    
Maximum Humidity 77    
Minimum Humidity 48    
Precipitation  
Precipitation 0.00 in - - ()
Sea Level Pressure  
Sea Level Pressure 30.21 in    
Wind  
Wind Speed 18 mph ()    
Max Wind Speed 25 mph    
Max Gust Speed 33 mph    
Visibility 7.2 miles    
Events      
Averages and records for this station are not official NWS values.
T = Trace of Precipitation, MM = Missing Value Source: Averaged Metar Reports

Daily Weather History Graph

Daily Weather History Graph

Search for Another Location

Airport:

Trip Planner

Search our weather history database for the weather conditions in past years. The results will help you decide how hot, cold, wet, or windy it might be!

Date:

Astronomy

Oct. 11, 2013 Rise Set
Actual Time 7:40 AM BST 6:42 PM BST
Civil Twilight 7:08 AM BST 7:14 PM BST
Nautical Twilight 6:31 AM BST 7:51 PM BST
Astronomical Twilight 5:53 AM BST 8:29 PM BST
Moon 2:31 PM BST (10/11) 11:53 PM BST (10/11)
Length of Visible Light 12h 06m
Length of Day
11h 01m
Waxing Crescent, 44% of the Moon is Illuminated
Oct 11
Waxing Crescent
Oct 12
First Quarter
Oct 19
Full
Oct 27
Last Quarter
Nov 3
New

Hourly Weather History & Observations

Time (BST) Temp. Dew Point Humidity Pressure Visibility Wind Dir Wind Speed Gust Speed Precip Events Conditions
12:50 AM 52 °F 39 °F 50% 30.29 in 28 mi NE 17.3 mph - -   Mostly Cloudy
3:50 AM 52 °F 38 °F 48% 30.25 in 31 mi NNE 13.8 mph - -   Scattered Clouds
6:50 AM 53 °F 40 °F 52% 30.23 in 31 mi NNE 19.6 mph - -   Scattered Clouds
7:50 AM 51.8 °F 39.2 °F 62% 30.21 in 6.2 mi NNE 16.1 mph 31.1 mph N/A   Partly Cloudy
8:20 AM 51.8 °F 41.0 °F 67% 30.21 in 6.2 mi NNE 20.7 mph - N/A   Scattered Clouds
8:50 AM 51.8 °F 42.8 °F 71% 30.21 in 6.2 mi NE 21.9 mph - N/A   Mostly Cloudy
9:20 AM 53.6 °F 42.8 °F 67% 30.21 in 6.2 mi NNE 21.9 mph - N/A   Scattered Clouds
9:50 AM 54 °F 44 °F 60% 30.22 in 22 mi NNE 21.9 mph - -   Scattered Clouds
9:50 AM 53.6 °F 44.6 °F 72% 30.21 in 6.2 mi NNE 20.7 mph - N/A   Scattered Clouds
10:20 AM 53.6 °F 44.6 °F 72% 30.21 in 6.2 mi NNE 20.7 mph 32.2 mph N/A   Mostly Cloudy
10:50 AM 55.4 °F 44.6 °F 67% 30.21 in 6.2 mi NNE 24.2 mph - N/A   Scattered Clouds
11:20 AM 55.4 °F 46.4 °F 72% 30.21 in 6.2 mi NNE 23.0 mph - N/A   Scattered Clouds
11:50 AM 55.4 °F 46.4 °F 72% 30.18 in 6.2 mi NE 21.9 mph - N/A   Partly Cloudy
12:20 PM 57.2 °F 48.2 °F 72% 30.18 in 6.2 mi NNE 24.2 mph - N/A   Partly Cloudy
12:50 PM 57 °F 46 °F 58% 30.22 in 16 mi NE 21.9 mph - -   Scattered Clouds
12:50 PM 57.2 °F 48.2 °F 72% 30.21 in 6.2 mi NE 21.9 mph 33.4 mph N/A   Partly Cloudy
1:20 PM 57.2 °F 48.2 °F 72% 30.18 in 6.2 mi NE 25.3 mph - N/A   Partly Cloudy
1:50 PM 57.2 °F 46.4 °F 67% 30.21 in 6.2 mi NE 19.6 mph - N/A   Partly Cloudy
2:20 PM 57.2 °F 46.4 °F 67% 30.21 in 6.2 mi NE 19.6 mph - N/A   Partly Cloudy
2:50 PM 57.2 °F 48.2 °F 72% 30.21 in 6.2 mi NE 21.9 mph - N/A   Scattered Clouds
3:20 PM 59.0 °F 48.2 °F 67% 30.21 in 6.2 mi NE 18.4 mph - N/A   Partly Cloudy
3:50 PM 58 °F 48 °F 59% 30.22 in 14 mi NE 19.6 mph - -   Scattered Clouds
3:50 PM 57.2 °F 48.2 °F 72% 30.21 in 6.2 mi NE 19.6 mph - N/A   Partly Cloudy
4:20 PM 57.2 °F 48.2 °F 72% 30.21 in 6.2 mi NNE 19.6 mph - N/A   Partly Cloudy
4:50 PM 57.2 °F 46.4 °F 67% 30.21 in 6.2 mi NNE 17.3 mph - N/A   Partly Cloudy
5:20 PM 57.2 °F 48.2 °F 72% 30.21 in 6.2 mi NNE 19.6 mph - N/A   Partly Cloudy
5:50 PM 57.2 °F 48.2 °F 72% 30.21 in 6.2 mi NNE 13.8 mph - N/A   Partly Cloudy
6:20 PM 55.4 °F 48.2 °F 77% 30.21 in 6.2 mi NNE 18.4 mph - N/A   Partly Cloudy
6:50 PM 56 °F 50 °F 74% 30.22 in 25 mi NNE 19.6 mph - -   Scattered Clouds
9:50 PM 56 °F 51 °F 77% 30.21 in 14 mi NNE 19.6 mph - -